Location: Bremen
(53.0796°N, 8.8241°E)
Time: 14:58:44
(UTC+02:00)

Tiangong 2 - Visible Passes

Search period start: 16 July 2018 00:00
Search period end: 26 July 2018 00:00
Orbit: 386 x 394 km, 42.8° (Epoch: 16 July)

Date Brightness Start Highest point End Pass type
(mag) Time Alt. Az. Time Alt. Az. Time Alt. Az.
16 Jul 3.5 23:42:46 10° SSW 23:43:13 11° SSW 23:43:13 11° SSW visible
17 Jul 3.2 22:44:59 10° SW 22:46:31 13° S 22:48:00 10° SSE visible
19 Jul 3.4 22:26:38 10° SSW 22:27:41 11° SSW 22:28:44 10° S visible
